Hourly Weather Arakaka

Today, 11 August, Tuesday

Time Temperature Precipitation Wind Pressure Humidity
00:00 +23°C° 0 mm 0 mps 752 mmHg 98%
01:00 +23°C° 0 mm 0 mps 751 mmHg 98%
02:00 +23°C° 0 mm 0 mps 751 mmHg 98%
03:00 +22°C° 0.1 mm 0 mps 751 mmHg 98%
04:00 +22°C° 0.1 mm 0 mps 751 mmHg 98%
05:00 +22°C° 0.1 mm 0 mps 751 mmHg 98%
06:00 +23°C° 0 mm 0 mps 751 mmHg 96%
07:00 +24°C° 0 mm 0 mps 752 mmHg 94%
08:00 +25°C° 0 mm 0 mps 752 mmHg 92%
09:00 +29°C° 0.5 mm 1 mps 752 mmHg 84%
10:00 +30°C° 0.5 mm 1 mps 752 mmHg 75%
11:00 +32°C° 0.5 mm 1 mps 752 mmHg 67%
12:00 +32°C° 0.5 mm 1 mps 751 mmHg 67%
13:00 +33°C° 0.5 mm 1 mps 750 mmHg 68%
14:00 +33°C° 0.5 mm 1 mps 750 mmHg 68%
15:00 +31°C° 0.9 mm 1 mps 749 mmHg 77%
16:00 +30°C° 0.9 mm 1 mps 749 mmHg 85%
17:00 +28°C° 0.9 mm 1 mps 749 mmHg 94%
18:00 +27°C° 0.1 mm 1 mps 749 mmHg 95%
19:00 +27°C° 0.1 mm 1 mps 750 mmHg 96%
20:00 +26°C° 0.1 mm 1 mps 751 mmHg 97%
21:00 +26°C° 0 mm 1 mps 751 mmHg 98%
22:00 +26°C° 0 mm 1 mps 752 mmHg 98%
23:00 +25°C° 0 mm 1 mps 752 mmHg 99%

Tomorrow, 12 August, Wednesday

Time Temperature Precipitation Wind Pressure Humidity
00:00 +23°C° 0 mm 0 mps 752 mmHg 99%
01:00 +23°C° 0 mm 0 mps 751 mmHg 99%
02:00 +23°C° 0 mm 0 mps 751 mmHg 99%
03:00 +23°C° 0.3 mm 0 mps 751 mmHg 99%
04:00 +23°C° 0.3 mm 0 mps 751 mmHg 99%
05:00 +23°C° 0.3 mm 0 mps 751 mmHg 99%
06:00 +23°C° 0.1 mm 0 mps 751 mmHg 97%
07:00 +24°C° 0.1 mm 0 mps 752 mmHg 95%
08:00 +27°C° 0.1 mm 1 mps 752 mmHg 93%
09:00 +29°C° 0.3 mm 1 mps 752 mmHg 85%
10:00 +31°C° 0.3 mm 1 mps 752 mmHg 76%
11:00 +32°C° 0.3 mm 2 mps 752 mmHg 68%
12:00 +32°C° 1 mm 2 mps 751 mmHg 72%
13:00 +32°C° 1 mm 1 mps 750 mmHg 77%
14:00 +31°C° 1 mm 1 mps 750 mmHg 81%
15:00 +31°C° 0.9 mm 1 mps 749 mmHg 85%
16:00 +30°C° 0.9 mm 1 mps 749 mmHg 88%
17:00 +30°C° 0.9 mm 1 mps 749 mmHg 92%
18:00 +28°C° 0.2 mm 1 mps 750 mmHg 94%
19:00 +27°C° 0.2 mm 1 mps 750 mmHg 95%
20:00 +26°C° 0.2 mm 1 mps 751 mmHg 97%
21:00 +25°C° 0 mm 1 mps 751 mmHg 97%
22:00 +25°C° 0 mm 1 mps 752 mmHg 97%
23:00 +24°C° 0 mm 1 mps 752 mmHg 98%

Day after tomorrow, 13 August, Thursday

Time Temperature Precipitation Wind Pressure Humidity
00:00 +22°C° 0 mm 0 mps 751 mmHg 98%
01:00 +22°C° 0 mm 0 mps 751 mmHg 98%
02:00 +22°C° 0 mm 0 mps 750 mmHg 98%
03:00 +22°C° 0.1 mm 0 mps 750 mmHg 99%
04:00 +22°C° 0.1 mm 0 mps 750 mmHg 99%
05:00 +22°C° 0.1 mm 0 mps 750 mmHg 99%
06:00 +23°C° 0.1 mm 0 mps 751 mmHg 97%
07:00 +24°C° 0.1 mm 0 mps 751 mmHg 95%
08:00 +25°C° 0.1 mm 0 mps 752 mmHg 93%
09:00 +29°C° 0 mm 1 mps 752 mmHg 80%
10:00 +32°C° 0 mm 1 mps 752 mmHg 67%
11:00 +34°C° 0 mm 1 mps 751 mmHg 54%
12:00 +33°C° 0.4 mm 1 mps 751 mmHg 61%
13:00 +32°C° 0.4 mm 2 mps 750 mmHg 68%
14:00 +32°C° 0.4 mm 2 mps 749 mmHg 76%
15:00 +31°C° 1 mm 1 mps 749 mmHg 82%
16:00 +30°C° 1 mm 1 mps 749 mmHg 88%
17:00 +29°C° 1 mm 1 mps 749 mmHg 95%
18:00 +28°C° 0.4 mm 1 mps 749 mmHg 96%
19:00 +27°C° 0.4 mm 1 mps 750 mmHg 97%
20:00 +26°C° 0.4 mm 1 mps 750 mmHg 98%
21:00 +24°C° 0 mm 0 mps 751 mmHg 98%
22:00 +23°C° 0 mm 0 mps 751 mmHg 98%
23:00 +23°C° 0 mm 0 mps 751 mmHg 99%

14 August, Friday

Time Temperature Precipitation Wind Pressure Humidity
00:00 +23°C° 0 mm 0 mps 751 mmHg 99%
01:00 +23°C° 0 mm 0 mps 750 mmHg 99%
02:00 +23°C° 0 mm 0 mps 750 mmHg 99%
03:00 +22°C° 0 mm 0 mps 750 mmHg 99%
04:00 +22°C° 0 mm 0 mps 749 mmHg 99%
05:00 +22°C° 0 mm 0 mps 749 mmHg 99%
06:00 +23°C° 0 mm 0 mps 750 mmHg 96%
07:00 +24°C° 0 mm 0 mps 751 mmHg 94%
08:00 +25°C° 0 mm 0 mps 751 mmHg 92%
09:00 +30°C° 0.1 mm 1 mps 751 mmHg 80%
10:00 +32°C° 0.1 mm 1 mps 751 mmHg 69%
11:00 +35°C° 0.1 mm 2 mps 751 mmHg 58%
12:00 +34°C° 1 mm 2 mps 750 mmHg 68%
13:00 +32°C° 1 mm 1 mps 750 mmHg 78%
14:00 +31°C° 1 mm 1 mps 749 mmHg 88%
15:00 +30°C° 0.8 mm 1 mps 749 mmHg 90%
16:00 +30°C° 0.8 mm 1 mps 749 mmHg 91%
17:00 +29°C° 0.8 mm 1 mps 749 mmHg 93%
18:00 +28°C° 0.1 mm 1 mps 749 mmHg 95%
19:00 +27°C° 0.1 mm 1 mps 750 mmHg 96%
20:00 +26°C° 0.1 mm 1 mps 750 mmHg 98%
21:00 +26°C° 0 mm 1 mps 750 mmHg 98%
22:00 +26°C° 0 mm 1 mps 751 mmHg 99%
23:00 +26°C° 0 mm 1 mps 751 mmHg 99%

15 August, Saturday

Time Temperature Precipitation Wind Pressure Humidity
00:00 +25°C° 0 mm 1 mps 750 mmHg 99%
01:00 +23°C° 0 mm 0 mps 750 mmHg 99%
02:00 +23°C° 0 mm 0 mps 749 mmHg 99%
03:00 +23°C° 0.1 mm 0 mps 749 mmHg 99%
04:00 +23°C° 0.1 mm 0 mps 749 mmHg 99%
05:00 +23°C° 0.1 mm 0 mps 750 mmHg 99%
06:00 +26°C° 0.1 mm 1 mps 750 mmHg 97%
07:00 +27°C° 0.1 mm 1 mps 750 mmHg 95%
08:00 +28°C° 0.1 mm 1 mps 751 mmHg 93%
09:00 +29°C° 0.2 mm 1 mps 751 mmHg 83%
10:00 +31°C° 0.2 mm 2 mps 751 mmHg 73%
11:00 +34°C° 0.2 mm 2 mps 751 mmHg 63%
12:00 +32°C° 1 mm 2 mps 750 mmHg 70%
13:00 +32°C° 1 mm 2 mps 750 mmHg 77%
14:00 +31°C° 1 mm 1 mps 749 mmHg 84%
15:00 +31°C° 1 mm 1 mps 749 mmHg 87%
16:00 +30°C° 1 mm 1 mps 749 mmHg 90%
17:00 +28°C° 1 mm 0 mps 748 mmHg 94%
18:00 +26°C° 0.3 mm 0 mps 749 mmHg 95%
19:00 +25°C° 0.3 mm 0 mps 749 mmHg 96%
20:00 +24°C° 0.3 mm 0 mps 750 mmHg 97%
21:00 +24°C° 0 mm 0 mps 750 mmHg 97%
22:00 +23°C° 0 mm 0 mps 751 mmHg 98%
23:00 +23°C° 0 mm 0 mps 751 mmHg 98%

16 August, Sunday

Time Temperature Precipitation Wind Pressure Humidity
00:00 +23°C° 0 mm 0 mps 750 mmHg 98%
01:00 +23°C° 0 mm 0 mps 750 mmHg 98%
02:00 +23°C° 0 mm 0 mps 749 mmHg 98%
03:00 +23°C° 0.1 mm 0 mps 749 mmHg 98%
04:00 +23°C° 0.1 mm 0 mps 749 mmHg 98%
05:00 +22°C° 0.1 mm 0 mps 749 mmHg 98%
06:00 +23°C° 0 mm 0 mps 750 mmHg 97%
07:00 +24°C° 0 mm 0 mps 751 mmHg 96%
08:00 +25°C° 0 mm 0 mps 751 mmHg 95%
09:00 +27°C° 0 mm 0 mps 751 mmHg 82%
10:00 +29°C° 0 mm 0 mps 751 mmHg 70%
11:00 +34°C° 0 mm 1 mps 751 mmHg 58%
12:00 +33°C° 0.6 mm 1 mps 750 mmHg 63%
13:00 +33°C° 0.6 mm 1 mps 750 mmHg 69%
14:00 +32°C° 0.6 mm 1 mps 749 mmHg 74%
15:00 +32°C° 1 mm 1 mps 748 mmHg 79%
16:00 +31°C° 1 mm 1 mps 748 mmHg 83%
17:00 +30°C° 1 mm 1 mps 748 mmHg 87%
18:00 +29°C° 0.4 mm 1 mps 749 mmHg 90%
19:00 +28°C° 0.4 mm 1 mps 749 mmHg 93%
20:00 +26°C° 0.4 mm 1 mps 750 mmHg 96%
21:00 +26°C° 0.2 mm 1 mps 750 mmHg 97%
22:00 +26°C° 0.2 mm 1 mps 750 mmHg 98%
23:00 +25°C° 0.2 mm 1 mps 751 mmHg 99%
Show more